GW5470 Weather Reports


time (UTC)temp
F
wind
direction
speed
knots
gust
knots
rain 1hr
in
rain 24hr
in
rain mn
in
humidity
%
barometer
mb
20260507020918 53 224 0.0 0.0 0.00 0.59 0.59 69 1014.9
20260507020414 53 263 0.9 2.6 0.00 0.59 0.59 64 1014.7
20260507015911 54 223 0.0 0.0 0.00 0.59 0.59 68 1014.4
20260507015409 54 221 0.0 0.0 0.00 0.59 0.59 67 1014.7
20260507014906 54 220 0.0 0.0 0.00 0.59 0.59 58 1014.5
20260507014402 54 212 0.0 0.0 0.00 0.59 0.59 61 1014.4
20260507013859 55 250 1.7 1.7 0.00 0.59 0.59 58 1014.3
20260507013356 55 202 0.9 0.9 0.00 0.59 0.59 58 1014.4
20260507012853 55 19 1.7 2.6 0.00 0.59 0.59 57 1014.4
20260507012349 55 227 0.9 0.9 0.00 0.59 0.59 58 1014.3
20260507011847 55 247 0.9 1.7 0.00 0.59 0.59 58 1014.3
20260507011344 55 218 1.7 1.7 0.00 0.59 0.59 59 1014.3
20260507010843 55 296 1.7 1.7 0.00 0.59 0.59 60 1014.0
20260507010339 55 222 0.9 0.9 0.00 0.59 0.59 61 1014.3
20260507005836 55 231 0.9 1.7 0.00 0.59 0.59 62 1014.1
20260507005333 55 209 0.0 0.9 0.00 0.59 0.59 62 1013.9
20260507004830 55 213 0.0 0.0 0.00 0.59 0.59 63 1013.7
20260507004327 55 222 0.0 0.0 0.00 0.59 0.59 71 1013.7
20260507003824 55 222 0.0 0.0 0.00 0.59 0.59 68 1013.5
20260507003319 55 222 0.0 0.0 0.00 0.59 0.59 67 1013.6
20260507002814 56 222 0.0 0.0 0.00 0.59 0.59 63 1013.3
20260507002311 56 232 0.9 0.9 0.00 0.59 0.59 59 1013.1
20260507001809 56 221 1.7 1.7 0.00 0.59 0.59 59 1013.1
20260507001306 57 111 1.7 1.7 0.00 0.59 0.59 58 1013.1
20260507000802 57 336 3.5 3.5 0.00 0.59 0.59 58 1013.2
20260507000259 57 235 0.9 0.9 0.00 0.59 0.59 58 1013.1
20260506235754 57 219 0.0 0.9 0.00 0.59 0.59 61 1012.9
20260506235250 57 230 0.9 0.9 0.00 0.59 0.59 61 1013.0
20260506234747 57 224 0.9 0.9 0.00 0.59 0.59 68 1013.0
20260506234244 57 233 1.7 2.6 0.00 0.59 0.59 64 1012.9
20260506233742 57 221 0.0 0.0 0.00 0.59 0.59 68 1012.8
20260506233238 57 221 0.0 0.0 0.00 0.59 0.59 69 1012.7
20260506232730 57 229 0.0 0.9 0.00 0.59 0.59 62 1012.9
20260506232230 57 225 0.0 0.0 0.00 0.59 0.59 70 1012.8
20260506231727 57 227 0.0 0.0 0.00 0.59 0.59 69 1012.8
20260506231225 57 227 0.0 0.0 0.00 0.59 0.59 67 1013.0
20260506230722 57 227 0.0 0.0 0.00 0.59 0.59 65 1013.2
20260506230219 58 223 0.0 0.0 0.00 0.59 0.59 74 1013.0
20260506225715 58 223 0.0 0.0 0.00 0.59 0.59 68 1013.3
20260506225212 59 223 0.0 0.0 0.00 0.59 0.59 66 1013.1
20260506224709 58 201 1.7 1.7 0.00 0.59 0.59 58 1013.1
20260506224206 59 224 0.0 0.0 0.00 0.59 0.59 61 1013.3
20260506223702 59 215 0.0 0.9 0.00 0.59 0.59 57 1013.1
20260506223158 59 245 2.6 2.6 0.00 0.59 0.59 52 1013.2
20260506222655 59 231 0.9 0.9 0.00 0.59 0.59 54 1013.0
20260506222150 60 224 0.9 0.9 0.00 0.59 0.59 53 1013.2
20260506221649 60 258 1.7 1.7 0.00 0.59 0.59 52 1013.0
20260506221147 60 269 2.6 2.6 0.00 0.59 0.59 51 1012.8
20260506220643 60 312 2.6 3.5 0.00 0.59 0.59 49 1012.8
20260506220138 61 307 2.6 2.6 0.00 0.59 0.59 51 1012.6
20260506215635 60 219 0.0 0.9 0.00 0.59 0.59 52 1012.7
20260506215130 61 223 1.7 1.7 0.00 0.59 0.59 52 1012.8
20260506214628 61 214 1.7 2.6 0.00 0.59 0.59 49 1012.5
20260506214125 61 247 2.6 3.5 0.00 0.59 0.59 49 1012.4
20260506213623 62 233 0.0 0.0 0.00 0.59 0.59 56 1012.1
20260506213120 62 248 1.7 1.7 0.00 0.59 0.59 49 1012.1
20260506212617 62 260 2.6 2.6 0.00 0.59 0.59 49 1012.0
20260506212112 62 265 2.6 3.5 0.00 0.59 0.59 48 1012.3
20260506211608 62 0 3.5 3.5 0.00 0.59 0.59 51 1012.2
20260506211105 62 238 0.0 0.9 0.00 0.59 0.59 50 1012.3
20260506210602 62 348 5.2 6.1 0.00 0.59 0.59 47 1012.2
20260506210058 62 252 1.7 1.7 0.00 0.59 0.59 50 1012.2
20260506205555 62 303 2.6 5.2 0.00 0.59 0.59 51 1012.1
20260506205050 62 293 1.7 1.7 0.00 0.59 0.59 50 1012.3
20260506204549 63 226 0.9 1.7 0.00 0.59 0.59 50 1012.4
20260506204045 63 211 0.9 0.9 0.00 0.59 0.59 53 1012.3
20260506203544 63 229 0.0 0.9 0.00 0.59 0.59 48 1012.1
20260506203040 64 246 0.9 1.7 0.00 0.59 0.59 51 1012.0
20260506202537 66 350 4.3 6.1 0.00 0.59 0.59 47 1012.0
20260506202033 66 243 0.0 0.9 0.00 0.59 0.59 49 1011.9
20260506201532 65 327 3.5 6.1 0.00 0.59 0.59 48 1012.1
20260506201028 65 322 4.3 5.2 0.00 0.59 0.59 47 1012.1
20260506200524 64 222 0.9 1.7 0.00 0.59 0.59 52 1011.9
20260506200021 63 306 2.6 3.5 0.00 0.59 0.59 56 1011.8
20260506195518 62 227 2.6 5.2 0.00 0.59 0.59 53 1011.7
20260506195014 62 186 0.9 0.9 0.00 0.59 0.59 54 1011.7
20260506194512 63 248 1.7 1.7 0.00 0.59 0.59 54 1011.8
20260506194008 62 222 1.7 1.7 0.00 0.59 0.59 56 1011.8
20260506193506 63 232 1.7 2.6 0.00 0.59 0.59 56 1011.7
20260506193002 62 244 2.6 2.6 0.00 0.59 0.59 55 1011.9
20260506192459 62 189 1.7 2.6 0.00 0.59 0.59 56 1011.9
20260506191955 62 271 1.7 2.6 0.00 0.59 0.59 56 1012.0
20260506191452 62 259 1.7 2.6 0.00 0.59 0.59 57 1011.9
20260506190948 61 276 0.0 0.9 0.00 0.59 0.59 58 1012.1
20260506190445 61 325 5.2 7.8 0.00 0.59 0.59 57 1012.1
20260506185942 61 230 1.7 2.6 0.00 0.59 0.59 61 1012.2
20260506185439 61 345 6.1 7.0 0.00 0.59 0.59 60 1011.9
20260506184936 61 323 1.7 1.7 0.00 0.59 0.59 61 1012.1
20260506184433 63 250 3.5 5.2 0.00 0.59 0.59 57 1012.0
20260506183930 62 305 5.2 7.8 0.00 0.59 0.59 57 1012.0
20260506183425 63 249 1.7 2.6 0.00 0.59 0.59 62 1012.0
20260506182923 63 4 3.5 5.2 0.00 0.59 0.59 60 1011.9
20260506182420 60 215 0.0 0.9 0.00 0.59 0.59 62 1012.1
20260506181918 60 268 1.7 2.6 0.00 0.59 0.59 63 1012.2
20260506181415 60 236 2.6 2.6 0.00 0.59 0.59 63 1012.2
20260506180912 60 277 1.7 2.6 0.00 0.59 0.59 63 1012.3
20260506180408 60 286 1.7 1.7 0.00 0.59 0.59 65 1012.3
20260506175905 62 187 2.6 2.6 0.00 0.59 0.59 62 1012.1
20260506175401 61 221 0.9 0.9 0.00 0.59 0.59 66 1012.2
20260506174858 60 38 6.1 8.7 0.00 0.59 0.59 64 1012.2
20260506174356 60 211 0.0 0.9 0.00 0.59 0.59 71 1012.1
20260506173853 59 272 3.5 5.2 0.00 0.59 0.59 68 1012.1
20260506173350 59 80 2.6 2.6 0.00 0.59 0.59 72 1012.5
20260506172847 59 340 4.3 6.1 0.00 0.59 0.59 73 1012.5
20260506172344 59 221 1.7 1.7 0.00 0.59 0.59 74 1012.5
20260506171841 59 254 1.7 1.7 0.00 0.59 0.59 72 1012.6
20260506171338 60 216 1.7 1.7 0.00 0.59 0.59 70 1012.5
20260506170836 60 188 0.9 1.7 0.00 0.59 0.59 73 1012.5
20260506170331 59 42 3.5 5.2 0.00 0.59 0.59 71 1012.5
20260506165826 58 233 0.9 1.7 0.00 0.59 0.59 73 1012.5
20260506165323 57 203 1.7 1.7 0.00 0.59 0.59 75 1012.4
20260506164819 58 343 4.3 5.2 0.00 0.59 0.59 77 1012.3
20260506164315 58 206 0.9 0.9 0.00 0.59 0.59 78 1012.1
20260506163813 57 224 0.9 0.9 0.00 0.59 0.59 76 1012.1
20260506163307 57 217 0.9 0.9 0.00 0.59 0.59 77 1012.1
20260506162803 58 332 4.3 5.2 0.00 0.59 0.59 77 1012.2
20260506162301 58 217 0.0 0.9 0.00 0.59 0.59 73 1012.5
20260506161758 57 247 2.6 3.5 0.00 0.59 0.59 78 1012.6
20260506161256 56 226 0.9 0.9 0.00 0.59 0.59 79 1012.5
20260506160753 56 245 1.7 2.6 0.00 0.59 0.59 81 1012.7
20260506160250 55 262 4.3 5.2 0.00 0.59 0.59 80 1012.4
20260506155749 55 331 2.6 3.5 0.00 0.59 0.59 81 1012.4
20260506155245 55 230 0.0 0.0 0.00 0.59 0.59 82 1012.5
20260506153352 55 323 2.6 2.6 0.00 0.59 0.59 85 1012.3
20260506152849 54 246 0.9 0.9 0.00 0.59 0.59 85 1012.0
20260506152346 53 257 1.7 1.7 0.00 0.59 0.59 84 1011.9
20260506151845 53 227 0.9 0.9 0.00 0.59 0.59 85 1011.8
20260506151341 52 241 1.7 2.6 0.00 0.59 0.59 87 1011.9
20260506150838 52 205 0.9 1.7 0.00 0.59 0.59 89 1011.8
20260506150335 51 234 1.7 1.7 0.00 0.59 0.59 90 1011.9
20260506145832 51 225 2.6 3.5 0.00 0.59 0.59 91 1011.9
20260506145328 50 273 1.7 1.7 0.00 0.59 0.59 92 1011.8
20260506144826 50 5 3.5 3.5 0.00 0.59 0.59 92 1011.6
20260506144322 50 210 1.7 2.6 0.00 0.59 0.59 93 1011.9
20260506143821 51 194 3.5 5.2 0.00 0.59 0.59 92 1011.7
20260506143317 51 230 1.7 1.7 0.00 0.59 0.59 93 1011.4
20260506142815 51 262 3.5 5.2 0.00 0.59 0.59 93 1011.1
20260506142313 50 267 2.6 2.6 0.00 0.59 0.59 93 1011.1
20260506141811 50 9 2.6 2.6 0.00 0.59 0.59 94 1011.2
20260506141309 50 0 3.5 3.5 0.00 0.59 0.59 93 1011.3
20260506140807 50 235 1.7 2.6 0.00 0.59 0.59 94 1011.2
20260506140303 50 249 1.7 1.7 0.00 0.59 0.59 94 1011.2
20260506135800 50 220 0.9 0.9 0.00 0.59 0.59 95 1011.0
20260506135256 50 222 0.9 0.9 0.00 0.59 0.59 95 1011.0
20260506134753 50 245 2.6 3.5 0.00 0.59 0.59 95 1010.8
20260506134249 49 230 1.7 1.7 0.00 0.59 0.59 95 1010.8
20260506133747 50 253 3.5 6.1 0.00 0.59 0.59 95 1010.7
20260506133243 49 324 5.2 7.0 0.00 0.59 0.59 96 1010.5
20260506132740 49 272 2.6 3.5 0.00 0.59 0.59 96 1010.3
20260506132238 49 226 0.9 1.7 0.00 0.59 0.59 97 1010.5
20260506131736 49 339 3.5 3.5 0.05 0.59 0.59 97 1010.4
20260506131231 49 241 1.7 2.6 0.05 0.59 0.59 97 1010.5
20260506130728 49 218 0.9 1.7 0.00 0.58 0.58 97 1010.4
20260506130225 49 249 1.7 2.6 0.07 0.58 0.58 97 1010.2
20260506125723 50 6 2.6 2.6 0.07 0.58 0.58 97 1010.2
20260506125221 50 352 3.5 5.2 0.00 0.57 0.57 97 1010.4
20260506124719 50 2 7.0 7.8 0.00 0.57 0.57 97 1010.0
20260506124216 50 222 0.9 1.7 0.05 0.57 0.57 97 1010.0
20260506123713 50 56 2.6 3.5 0.05 0.57 0.57 97 1009.8
20260506123212 51 328 1.7 2.6 0.05 0.57 0.57 97 1009.3
20260506122709 51 188 1.7 1.7 0.00 0.56 0.56 98 1009.1
20260506122206 51 227 0.9 0.9 0.00 0.56 0.56 98 1008.8
20260506121704 52 243 2.6 3.5 0.00 0.56 0.56 98 1008.7
20260506121200 52 270 1.7 1.7 0.00 0.56 0.56 98 1008.5
20260506120658 53 217 0.9 1.7 0.00 0.56 0.56 98 1008.5
20260506120155 53 255 0.9 1.7 0.00 0.56 0.56 98 1008.4
20260506115654 54 296 2.6 2.6 0.00 0.56 0.56 98 1008.2
20260506115151 54 251 2.6 3.5 0.00 0.56 0.56 98 1008.4
20260506114648 54 211 0.0 0.9 0.00 0.56 0.56 98 1008.2
20260506114146 54 207 0.0 0.9 0.00 0.56 0.56 99 1008.1
20260506113645 54 266 1.7 2.6 0.00 0.56 0.56 99 1007.7
20260506113141 55 273 1.7 1.7 0.00 0.56 0.56 99 1007.9
20260506112637 55 221 0.0 0.0 0.07 0.56 0.56 99 1007.8
20260506112135 55 223 0.9 0.9 0.07 0.56 0.56 99 1007.6
20260506111633 55 233 0.9 0.9 0.00 0.55 0.55 99 1007.7
20260506111130 56 255 3.5 3.5 0.05 0.55 0.55 99 1007.6
20260506110627 57 277 2.6 2.6 0.05 0.55 0.55 99 1007.7
20260506110125 57 218 1.7 1.7 0.00 0.54 0.54 99 1007.7
20260506105621 57 204 0.0 0.0 0.07 0.54 0.54 99 1007.3
20260506105118 57 209 0.0 0.0 0.07 0.54 0.54 99 1007.1
20260506104616 57 224 0.9 0.9 0.00 0.53 0.53 99 1007.0
20260506104114 57 207 0.9 1.7 0.00 0.53 0.53 99 1007.2
20260506103611 57 207 0.9 0.9 0.00 0.53 0.53 99 1007.1
20260506103108 57 207 0.9 0.9 0.00 0.53 0.53 99 1006.7
20260506102606 57 207 0.0 0.0 0.00 0.53 0.53 99 1006.8
20260506102103 57 208 0.0 0.0 0.00 0.53 0.53 99 1006.7
20260506101600 57 207 0.0 0.0 0.00 0.53 0.53 99 1006.6
20260506101056 57 208 0.0 0.0 0.00 0.53 0.53 99 1006.6
20260506100555 57 207 0.0 0.0 0.00 0.53 0.53 99 1006.8
20260506100053 57 207 0.0 0.0 0.00 0.53 0.53 99 1006.8
20260506095551 57 208 0.0 0.0 0.00 0.53 0.53 99 1006.8
20260506095047 57 207 0.0 0.0 0.00 0.53 0.53 99 1006.6
20260506094545 57 207 0.0 0.0 0.00 0.53 0.53 99 1006.7
20260506094043 57 207 0.0 0.0 0.00 0.53 0.53 99 1006.5
20260506093541 57 207 0.0 0.0 0.00 0.53 0.53 99 1006.7
20260506093038 57 207 0.0 0.0 0.00 0.53 0.53 99 1006.8
20260506092536 57 207 0.0 0.0 0.00 0.53 0.53 99 1006.9
20260506092032 57 207 0.0 0.0 0.00 0.53 0.53 99 1006.9
20260506091531 57 207 0.0 0.0 0.00 0.53 0.53 99 1007.0
20260506091027 57 207 0.0 0.9 0.07 0.53 0.53 99 1006.8
20260506090525 57 208 0.0 0.0 0.12 0.53 0.53 99 1007.0
20260506090021 57 215 0.0 0.0 0.12 0.52 0.52 99 1007.1
20260506085518 57 215 0.0 0.0 0.19 0.51 0.51 99 1007.0
20260506085015 57 215 0.0 0.0 0.17 0.50 0.50 99 1007.0
20260506084512 57 201 0.0 0.0 0.19 0.49 0.49 99 1007.1
20260506084008 57 200 0.9 0.9 0.19 0.47 0.47 99 1007.0
20260506083505 57 200 0.0 0.0 0.17 0.46 0.46 99 1007.0
20260506083002 57 200 0.0 0.9 0.12 0.44 0.44 99 1006.9
20260506082459 57 202 0.0 0.9 0.19 0.43 0.43 99 1006.8
20260506081955 57 201 0.0 0.0 0.24 0.42 0.42 99 1006.9
20260506081453 57 200 0.9 0.9 0.24 0.40 0.40 99 1007.0
20260506080951 57 203 0.0 0.9 0.31 0.38 0.38 99 1006.9
20260506080447 57 196 0.9 0.9 0.31 0.36 0.36 99 1006.9
20260506073431 58 205 0.0 0.9 0.19 0.29 0.29 99 1007.0
20260506072928 58 205 0.9 0.9 0.12 0.27 0.27 99 1007.3
20260506072425 58 205 0.0 0.0 0.12 0.26 0.26 99 1007.2
20260506071923 58 205 0.9 0.9 0.19 0.25 0.25 99 1007.2
20260506071421 58 206 0.0 0.9 0.17 0.24 0.24 99 1007.3
20260506070918 58 206 0.0 0.0 0.19 0.23 0.23 99 1007.1
20260506070415 58 206 0.0 0.0 0.24 0.21 0.21 99 1007.2
20260506062352 58 221 0.0 0.0 0.07 0.08 0.08 99 1007.5
20260506061848 58 221 0.0 0.0 0.00 0.07 0.07 99 1007.5
20260506061344 58 221 0.9 0.9 0.00 0.07 0.07 99 1007.1
20260506060843 58 219 0.0 0.0 0.00 0.07 0.07 99 1006.9
20260506060340 58 219 0.0 0.0 0.00 0.07 0.07 99 1007.0
20260506051312 58 222 0.0 0.0 0.00 0.04 0.04 98 1007.7
20260506050810 58 222 0.0 0.0 0.07 0.04 0.04 98 1007.8
20260506050307 58 223 0.0 0.0 0.07 0.04 0.04 98 1008.0
20260506044758 59 206 1.7 1.7 0.00 0.03 0.03 98 1007.8
20260506044255 59 225 0.0 0.0 0.00 0.03 0.03 98 1008.2
20260506043752 59 225 0.0 0.0 0.00 0.03 0.03 98 1008.2
20260506043249 59 225 0.0 0.0 0.00 0.03 0.03 98 1008.4
20260506042748 59 225 0.0 0.0 0.07 0.03 0.03 98 1008.4
20260506042247 59 224 0.0 0.0 0.12 0.03 0.03 98 1008.6
20260506041745 59 225 0.0 0.0 0.12 0.02 0.02 98 1009.2
20260506041241 59 225 0.0 0.0 0.07 0.01 0.01 98 1009.1
20260506040739 59 225 0.0 0.0 0.05 0.00 0.00 97 1009.0
20260506040236 59 225 0.0 0.0 0.05 0.00 0.00 97 1009.2
20260506035732 59 225 0.0 0.0 0.00 0.03 0.03 97 1009.0
20260506035230 59 225 0.0 0.0 0.07 0.03 0.03 97 1009.0
20260506034726 59 225 0.0 0.0 0.07 0.03 0.03 97 1009.1
20260506034223 59 225 0.0 0.0 0.07 0.03 0.03 97 1008.7
20260506033721 59 225 0.0 0.0 0.00 0.02 0.02 97 1008.6
20260506033218 59 225 0.0 0.0 0.00 0.02 0.02 97 1008.5
20260506032715 59 225 0.0 0.0 0.00 0.02 0.02 97 1008.5
20260506032212 59 225 0.0 0.0 0.00 0.02 0.02 97 1008.5
20260506031708 59 225 0.0 0.0 0.00 0.02 0.02 97 1008.5
20260506031206 59 225 0.0 0.0 0.00 0.02 0.02 97 1008.6
20260506030704 59 225 0.0 0.0 0.00 0.02 0.02 97 1008.7
20260506030201 59 225 0.0 0.0 0.00 0.02 0.02 97 1008.4
20260506025657 59 225 0.0 0.0 0.00 0.02 0.02 97 1008.5
20260506025154 59 225 0.0 0.0 0.00 0.02 0.02 96 1008.3
20260506024651 59 225 0.0 0.0 0.00 0.02 0.02 96 1008.7
20260506024148 59 225 0.0 0.0 0.00 0.02 0.02 96 1008.6
20260506023644 59 225 0.0 0.0 0.00 0.02 0.02 95 1008.6
20260506023141 59 225 0.0 0.0 0.00 0.02 0.02 95 1008.5
20260506022638 59 213 0.9 0.9 0.05 0.02 0.02 95 1008.6
20260506022135 59 213 0.0 0.0 0.05 0.02 0.02 94 1008.7
20260506021633 60 213 0.0 0.0 0.00 0.01 0.01 93 1008.8
20260506021130 60 214 0.0 0.0 0.00 0.01 0.01 93 1008.5